Location: Amherst
(42.3800°N, 72.5240°W)
Time: 11:37:56
(UTC-04:00)

ISS - Pass Details

Date: 20 May 2021
Orbit: 417 x 422 km, 51.6° (Epoch: 14 June)

Event Time Altitude Azimuth Distance (km) Brightness Sun altitude
Rises 23:08:37 0° 301° (WNW) 2,367 0.9 -23.4°
Reaches altitude 10° 23:11:13 10° 322° (NW) 1,504 0.1 -23.6°
Maximum altitude 23:13:35 18° 7° (N) 1,124 -0.9 -23.8°
Enters shadow 23:15:48 11° 50° (NE) 1,458 -0.8 -24.0°
